This demonstration page uses our WeatherBlox Daily Observations layout. Learn more.

Left ArrowRight Arrow

34.02893, -84.19858

Hourly Observations for July 24, 2018

Temp ( °F °C ) Dew Point ( °F °C ) Humidity (%) Winds ( mph kmh ) Pressure ( in mb ) Visibility ( mi km ) Precip ( " mm )
12:08 am 00:08 Cloudy with Nearby Thunderstorms 72 22.2 70 21.1 94 94 W 5 7 29.91 1013 10 16 0.00 0.00
12:49 am 00:49 Cloudy 72 22 70 21 94 94 N 3 6 29.91 1013 10 16 0.00 0.00
12:53 am 00:53 Cloudy 71 21.7 69 20.6 94 94 NNW 3 6 29.88 1012 10 16 0.00 0.00
1:14 am 01:14 Partly Cloudy 71 21.7 70 21.1 96 96 NNE 3 6 29.88 1012 10 16 0.00 0.00
1:53 am 01:53 Mostly Clear 71 21.7 70 21.1 96 96 NNE 5 7 29.87 1012 10 16 0.00 0.00
2:24 am 02:24 Mostly Cloudy 71 21.7 70 21.1 96 96 Calm 29.88 1012 10 16 0.00 0.00
2:53 am 02:53 Cloudy 72 22.2 70 21.1 94 94 VRB 3 6 29.86 1011 10 16 0.00 0.00
3:53 am 03:53 Mostly Cloudy 71 21.7 70 21.1 96 96 E 3 6 29.85 1011 9 14 0.00 0.00
4:53 am 04:53 Mostly Cloudy 71 21.7 69 20.6 94 94 VRB 3 6 29.86 1011 10 16 0.00 0.00
5:05 am 05:05 Mostly Cloudy 70 21.1 69 20.6 97 97 VRB 5 7 29.88 1012 10 16 0.00 0.00
5:28 am 05:28 Cloudy 70 21.1 69 20.6 97 97 VRB 3 6 29.88 1012 10 16 0.00 0.00
5:43 am 05:43 Cloudy 71 21.7 69 20.6 94 94 Calm 29.88 1012 10 16 0.00 0.00
5:53 am 05:53 Cloudy 71 21.7 69 20.6 94 94 VRB 3 6 29.87 1011 10 16 0.00 0.00
6:51 am 06:51 Cloudy 72 22 70 21 94 94 VRB 3 6 29.91 1013 10 16 0.00 0.00
6:53 am 06:53 Cloudy 71 21.7 69 20.6 94 94 Calm 29.88 1012 10 16 0.00 0.00
7:40 am 07:40 Mostly Cloudy 71 21.7 69 20.6 94 94 Calm 29.91 1013 9 14 0.00 0.00
7:53 am 07:53 Cloudy 71 21.7 69 20.6 94 94 Calm 29.91 1013 9 14 0.00 0.00
8:02 am 08:02 Cloudy 71 21.7 69 20.6 94 94 Calm 29.94 1014 9 14 0.00 0.00
8:53 am 08:53 Cloudy 72 22.2 69 20.6 91 91 E 3 6 29.92 1013 10 16 0.00 0.00
9:00 am 09:00 Cloudy 72 22.2 69 20.6 91 91 VRB 6 9 29.94 1014 10 16 0.00 0.00
9:08 am 09:08 Cloudy 72 22.2 69 20.6 91 91 E 5 7 29.94 1014 10 16 0.00 0.00
9:53 am 09:53 Cloudy 72 22.2 69 20.6 91 91 VRB 3 6 29.94 1014 10 16 0.00 0.00
10:53 am 10:53 Cloudy 73 22.8 68 20 84 84 NE 3 6 29.95 1014 10 16 0.00 0.00
11:53 am 11:53 Cloudy 77 25 70 21.1 79 79 VRB 3 6 29.95 1014 10 16 0.00 0.00
12:53 pm 12:53 Mostly Cloudy 78 25.6 69 20.6 74 74 Calm 29.94 1014 10 16 0.00 0.00
1:53 pm 13:53 Mostly Sunny 79 26.1 68 20 69 69 Calm 29.92 1013 10 16 0.00 0.00
2:53 pm 14:53 Mostly Cloudy 82 27.8 69 20.6 65 65 Calm 29.89 1012 10 16 0.00 0.00
3:53 pm 15:53 Partly Cloudy 83 28.3 68 20 61 61 Calm 29.88 1012 10 16 0.00 0.00
4:53 pm 16:53 Mostly Sunny 81 27.2 68 20 65 65 Calm 29.87 1011 10 16 0.00 0.00
5:53 pm 17:53 Sunny 84 28.9 69 20.6 61 61 VRB 3 6 29.86 1011 10 16 0.00 0.00
6:53 pm 18:53 Cloudy with Light Rain 78 25.6 69 20.6 74 74 VRB 3 6 29.88 1012 10 16 0.00 0.03
7:53 pm 19:53 Sunny 78 25.6 71 21.7 79 79 Calm 29.87 1012 10 16 0.01 0.25
8:53 pm 20:53 Clear 75 23.9 72 22.2 90 90 Calm 29.90 1012 9 14 0.00 0.00
9:53 pm 21:53 Clear 74 23.3 72 22.2 94 94 Calm 29.92 1013 8 13 0.00 0.00
10:53 pm 22:53 Clear 74 23.3 72 22.2 94 94 Calm 29.93 1014 7 11 0.00 0.00
11:53 pm 23:53 Clear 73 22.8 71 21.7 94 94 Calm 29.93 1013 10 16 0.00 0.00

Powered by AerisWeather